Time,TemperatureF,DewpointF,PressureIn,WindDirection,WindDirectionDegrees,WindSpeedMPH,WindSpeedGustMPH,Humidity,HourlyPrecipIn,Conditions,Clouds,dailyrainin,SoftwareType,DateUTC
2013-01-01 00:01:00,28.0,5.0,30.00,North,0,5.0,5.0,37,0.00,,,0.00,,2013-01-01 08:01:00,
2013-01-01 00:11:00,28.0,5.0,30.00,North,0,5.0,5.0,37,0.00,,,0.00,,2013-01-01 08:11:00,
2013-01-01 00:21:00,28.0,5.0,30.00,North,0,2.0,3.0,37,0.00,,,0.00,,2013-01-01 08:21:00,
2013-01-01 00:32:00,26.0,3.0,30.00,North,0,0.0,0.0,37,0.00,,,0.00,,2013-01-01 08:32:00,
2013-01-01 00:42:00,23.0,2.0,30.00,North,0,0.0,0.0,40,0.00,,,0.00,,2013-01-01 08:42:00,
2013-01-01 00:53:00,23.0,2.0,30.00,North,0,0.0,0.0,40,0.00,,,0.00,,2013-01-01 08:53:00,
2013-01-01 01:02:00,23.0,4.0,30.00,North,0,1.0,3.0,44,0.00,,,0.00,,2013-01-01 09:02:00,
2013-01-01 01:11:00,23.0,4.0,30.00,North,0,1.0,3.0,44,0.00,,,0.00,,2013-01-01 09:11:00,
2013-01-01 01:21:00,24.0,7.0,30.00,North,0,0.0,2.0,47,0.00,,,0.00,,2013-01-01 09:21:00,
2013-01-01 01:32:00,24.0,5.0,29.97,North,0,1.0,2.0,44,0.00,,,0.00,,2013-01-01 09:32:00,
2013-01-01 01:42:00,24.0,5.0,29.97,North,0,1.0,2.0,44,0.00,,,0.00,,2013-01-01 09:42:00,
2013-01-01 01:52:00,25.0,6.0,29.97,North,0,0.0,2.0,43,0.00,,,0.00,,2013-01-01 09:52:00,
2013-01-01 02:01:00,26.0,5.0,29.97,North,0,0.0,2.0,40,0.00,,,0.00,,2013-01-01 10:01:00,
2013-01-01 02:11:00,26.0,4.0,29.97,North,0,1.0,3.0,39,0.00,,,0.00,,2013-01-01 10:11:00,
2013-01-01 02:22:00,26.0,4.0,29.97,North,0,1.0,3.0,39,0.00,,,0.00,,2013-01-01 10:22:00,
2013-01-01 02:32:00,26.0,4.0,29.97,North,0,2.0,3.0,38,0.00,,,0.00,,2013-01-01 10:32:00,
2013-01-01 02:42:00,26.0,4.0,29.97,North,0,2.0,3.0,38,0.00,,,0.00,,2013-01-01 10:42:00,
2013-01-01 02:52:00,26.0,4.0,29.97,North,0,3.0,3.0,38,0.00,,,0.00,,2013-01-01 10:52:00,
2013-01-01 03:01:00,25.0,4.0,29.97,North,0,0.0,2.0,39,0.00,,,0.00,,2013-01-01 11:01:00,
2013-01-01 03:11:00,25.0,4.0,29.97,North,0,0.0,2.0,39,0.00,,,0.00,,2013-01-01 11:11:00,
2013-01-01 03:22:00,25.0,4.0,29.97,North,0,3.0,3.0,39,0.00,,,0.00,,2013-01-01 11:22:00,
2013-01-01 03:32:00,22.0,2.0,29.97,North,0,0.0,2.0,42,0.00,,,0.00,,2013-01-01 11:32:00,
2013-01-01 03:42:00,22.0,2.0,29.97,North,0,0.0,2.0,42,0.00,,,0.00,,2013-01-01 11:42:00,
2013-01-01 03:53:00,22.0,4.0,29.94,North,0,2.0,3.0,46,0.00,,,0.00,,2013-01-01 11:53:00,
2013-01-01 04:02:00,24.0,5.0,29.94,North,0,2.0,3.0,43,0.00,,,0.00,,2013-01-01 12:02:00,
2013-01-01 04:12:00,24.0,5.0,29.94,North,0,2.0,3.0,43,0.00,,,0.00,,2013-01-01 12:12:00,
2013-01-01 04:22:00,22.0,2.0,29.94,North,0,0.0,0.0,42,0.00,,,0.00,,2013-01-01 12:22:00,
2013-01-01 04:32:00,23.0,3.0,29.94,North,0,2.0,3.0,41,0.00,,,0.00,,2013-01-01 12:32:00,
2013-01-01 04:42:00,23.0,3.0,29.94,North,0,2.0,3.0,41,0.00,,,0.00,,2013-01-01 12:42:00,
2013-01-01 04:52:00,23.0,3.0,29.94,North,0,0.0,2.0,42,0.00,,,0.00,,2013-01-01 12:52:00,
2013-01-01 05:02:00,23.0,3.0,29.91,North,0,0.0,0.0,41,0.00,,,0.00,,2013-01-01 13:02:00,
2013-01-01 05:12:00,23.0,3.0,29.91,North,0,0.0,0.0,41,0.00,,,0.00,,2013-01-01 13:12:00,
2013-01-01 05:22:00,23.0,3.0,29.94,North,0,2.0,3.0,41,0.00,,,0.00,,2013-01-01 13:22:00,
2013-01-01 05:32:00,22.0,2.0,29.94,North,0,0.0,0.0,41,0.00,,,0.00,,2013-01-01 13:32:00,
2013-01-01 05:42:00,22.0,2.0,29.94,North,0,0.0,0.0,41,0.00,,,0.00,,2013-01-01 13:42:00,
2013-01-01 05:52:00,22.0,4.0,29.94,North,0,4.0,5.0,45,0.00,,,0.00,,2013-01-01 13:52:00,
2013-01-01 06:01:00,22.0,6.0,29.94,North,0,0.0,0.0,49,0.00,,,0.00,,2013-01-01 14:01:00,
2013-01-01 06:11:00,22.0,6.0,29.94,North,0,0.0,0.0,49,0.00,,,0.00,,2013-01-01 14:11:00,
2013-01-01 06:21:00,24.0,7.0,29.94,North,0,2.0,3.0,48,0.00,,,0.00,,2013-01-01 14:21:00,
2013-01-01 06:32:00,25.0,8.0,29.94,North,0,2.0,2.0,47,0.00,,,0.00,,2013-01-01 14:32:00,
2013-01-01 06:42:00,25.0,8.0,29.94,North,0,2.0,2.0,47,0.00,,,0.00,,2013-01-01 14:42:00,
2013-01-01 06:53:00,26.0,7.0,29.94,North,0,0.0,0.0,43,0.00,,,0.00,,2013-01-01 14:53:00,
2013-01-01 07:02:00,26.0,5.0,29.94,North,0,0.0,3.0,40,0.00,,,0.00,,2013-01-01 15:02:00,
2013-01-01 07:12:00,26.0,4.0,29.94,North,0,0.0,3.0,39,0.00,,,0.00,,2013-01-01 15:12:00,
2013-01-01 07:22:00,26.0,4.0,29.94,North,0,0.0,3.0,39,0.00,,,0.00,,2013-01-01 15:22:00,
2013-01-01 07:32:00,26.0,5.0,29.94,North,0,1.0,3.0,40,0.00,,,0.00,,2013-01-01 15:32:00,
2013-01-01 07:42:00,26.0,5.0,29.94,North,0,1.0,3.0,40,0.00,,,0.00,,2013-01-01 15:42:00,
2013-01-01 07:53:00,27.0,6.0,29.94,North,0,0.0,5.0,40,0.00,,,0.00,,2013-01-01 15:53:00,
2013-01-01 08:02:00,26.0,5.0,29.94,North,0,2.0,5.0,40,0.00,,,0.00,,2013-01-01 16:02:00,
2013-01-01 08:11:00,26.0,5.0,29.94,North,0,2.0,5.0,40,0.00,,,0.00,,2013-01-01 16:11:00,
2013-01-01 08:22:00,27.0,6.0,29.97,North,0,0.0,0.0,40,0.00,,,0.00,,2013-01-01 16:22:00,
2013-01-01 08:32:00,29.0,7.0,29.97,North,0,0.0,2.0,38,0.00,,,0.00,,2013-01-01 16:32:00,
2013-01-01 08:42:00,29.0,7.0,29.97,North,0,0.0,2.0,38,0.00,,,0.00,,2013-01-01 16:42:00,
2013-01-01 08:52:00,29.0,7.0,29.97,North,0,0.0,0.0,38,0.00,,,0.00,,2013-01-01 16:52:00,
2013-01-01 09:01:00,31.0,8.0,29.97,North,0,0.0,0.0,37,0.00,,,0.00,,2013-01-01 17:01:00,
2013-01-01 09:11:00,31.0,8.0,29.97,North,0,0.0,0.0,37,0.00,,,0.00,,2013-01-01 17:11:00,
2013-01-01 09:22:00,31.0,8.0,29.97,North,0,3.0,6.0,37,0.00,,,0.00,,2013-01-01 17:22:00,
2013-01-01 09:32:00,33.0,9.0,29.97,North,0,3.0,5.0,36,0.00,,,0.00,,2013-01-01 17:32:00,
2013-01-01 09:42:00,33.0,9.0,29.97,North,0,3.0,5.0,36,0.00,,,0.00,,2013-01-01 17:42:00,
2013-01-01 09:53:00,39.0,9.0,30.00,North,0,0.0,0.0,29,0.00,,,0.00,,2013-01-01 17:53:00,
2013-01-01 10:02:00,41.0,5.0,30.00,East,93,5.0,10.0,22,0.00,,,0.00,,2013-01-01 18:02:00,
2013-01-01 10:12:00,41.0,5.0,30.00,East,93,5.0,10.0,22,0.00,,,0.00,,2013-01-01 18:12:00,
2013-01-01 10:22:00,40.0,4.0,30.00,East,99,5.0,8.0,22,0.00,,,0.00,,2013-01-01 18:22:00,
2013-01-01 10:32:00,41.0,5.0,30.00,East,90,6.0,8.0,22,0.00,,,0.00,,2013-01-01 18:32:00,
2013-01-01 10:42:00,41.0,5.0,30.00,East,90,6.0,8.0,22,0.00,,,0.00,,2013-01-01 18:42:00,
2013-01-01 10:52:00,41.0,5.0,30.00,East,90,6.0,8.0,22,0.00,,,0.00,,2013-01-01 18:52:00,
2013-01-01 11:01:00,44.0,7.0,30.03,ESE,105,5.0,10.0,21,0.00,,,0.00,,2013-01-01 19:01:00,
2013-01-01 11:11:00,44.0,7.0,30.03,ESE,105,5.0,10.0,21,0.00,,,0.00,,2013-01-01 19:11:00,
2013-01-01 11:22:00,43.0,6.0,30.00,East,90,9.0,12.0,21,0.00,,,0.00,,2013-01-01 19:22:00,
2013-01-01 11:32:00,44.0,7.0,30.00,East,90,7.0,13.0,21,0.00,,,0.00,,2013-01-01 19:32:00,
2013-01-01 11:42:00,44.0,7.0,30.00,East,90,7.0,13.0,21,0.00,,,0.00,,2013-01-01 19:42:00,
2013-01-01 11:52:00,44.0,7.0,30.00,East,94,6.0,9.0,21,0.00,,,0.00,,2013-01-01 19:52:00,
2013-01-01 12:01:00,43.0,6.0,29.97,East,96,6.0,12.0,21,0.00,,,0.00,,2013-01-01 20:01:00,
2013-01-01 12:11:00,43.0,6.0,29.97,East,96,6.0,12.0,21,0.00,,,0.00,,2013-01-01 20:11:00,
2013-01-01 12:22:00,43.0,6.0,29.97,East,93,7.0,12.0,21,0.00,,,0.00,,2013-01-01 20:22:00,
2013-01-01 12:32:00,43.0,6.0,29.97,East,90,9.0,13.0,21,0.00,,,0.00,,2013-01-01 20:32:00,
2013-01-01 12:42:00,43.0,6.0,29.97,East,90,9.0,13.0,21,0.00,,,0.00,,2013-01-01 20:42:00,
2013-01-01 12:52:00,43.0,6.0,29.97,East,90,11.0,14.0,21,0.00,,,0.00,,2013-01-01 20:52:00,
2013-01-01 13:02:00,43.0,6.0,29.97,East,92,7.0,13.0,21,0.00,,,0.00,,2013-01-01 21:02:00,
2013-01-01 13:12:00,43.0,6.0,29.97,ESE,102,6.0,10.0,21,0.00,,,0.00,,2013-01-01 21:12:00,
2013-01-01 13:22:00,43.0,6.0,29.97,ESE,102,6.0,10.0,21,0.00,,,0.00,,2013-01-01 21:22:00,
2013-01-01 13:32:00,45.0,7.0,29.94,East,97,7.0,13.0,21,0.00,,,0.00,,2013-01-01 21:32:00,
2013-01-01 13:42:00,45.0,7.0,29.94,East,97,7.0,13.0,21,0.00,,,0.00,,2013-01-01 21:42:00,
2013-01-01 13:52:00,46.0,8.0,29.97,East,80,8.0,13.0,21,0.00,,,0.00,,2013-01-01 21:52:00,
2013-01-01 14:02:00,46.0,8.0,29.94,East,93,5.0,12.0,21,0.00,,,0.00,,2013-01-01 22:02:00,
2013-01-01 14:11:00,46.0,8.0,29.94,East,93,5.0,12.0,21,0.00,,,0.00,,2013-01-01 22:11:00,
2013-01-01 14:22:00,47.0,8.0,29.94,ESE,105,5.0,12.0,20,0.00,,,0.00,,2013-01-01 22:22:00,
2013-01-01 14:32:00,44.0,7.0,29.94,East,90,7.0,13.0,21,0.00,,,0.00,,2013-01-01 22:32:00,
2013-01-01 14:42:00,44.0,7.0,29.94,East,90,7.0,13.0,21,0.00,,,0.00,,2013-01-01 22:42:00,
2013-01-01 14:52:00,44.0,7.0,29.94,East,90,7.0,10.0,21,0.00,,,0.00,,2013-01-01 22:52:00,
2013-01-01 15:02:00,47.0,8.0,29.94,ESE,118,5.0,10.0,20,0.00,,,0.00,,2013-01-01 23:02:00,
2013-01-01 15:12:00,47.0,8.0,29.94,ESE,118,5.0,10.0,20,0.00,,,0.00,,2013-01-01 23:12:00,
2013-01-01 15:22:00,47.0,8.0,29.94,ESE,112,5.0,9.0,20,0.00,,,0.00,,2013-01-01 23:22:00,
2013-01-01 15:32:00,46.0,8.0,29.94,East,91,6.0,10.0,21,0.00,,,0.00,,2013-01-01 23:32:00,
2013-01-01 15:42:00,46.0,8.0,29.94,East,91,6.0,10.0,21,0.00,,,0.00,,2013-01-01 23:42:00,
2013-01-01 15:52:00,45.0,7.0,29.94,East,100,6.0,10.0,21,0.00,,,0.00,,2013-01-01 23:52:00,
2013-01-01 16:02:00,44.0,7.0,29.94,East,90,6.0,10.0,21,0.00,,,0.00,,2013-01-02 00:02:00,
2013-01-01 16:12:00,44.0,7.0,29.94,East,90,6.0,10.0,21,0.00,,,0.00,,2013-01-02 00:12:00,
2013-01-01 16:22:00,44.0,7.0,29.94,ESE,105,5.0,8.0,21,0.00,,,0.00,,2013-01-02 00:22:00,
2013-01-01 16:32:00,44.0,7.0,29.94,ESE,102,5.0,8.0,21,0.00,,,0.00,,2013-01-02 00:32:00,
2013-01-01 16:42:00,44.0,7.0,29.94,ESE,102,5.0,8.0,21,0.00,,,0.00,,2013-01-02 00:42:00,
2013-01-01 16:52:00,42.0,6.0,29.94,East,90,5.0,8.0,22,0.00,,,0.00,,2013-01-02 00:52:00,
2013-01-01 17:02:00,40.0,4.0,29.94,East,90,5.0,6.0,22,0.00,,,0.00,,2013-01-02 01:02:00,
2013-01-01 17:11:00,40.0,4.0,29.94,East,90,5.0,6.0,22,0.00,,,0.00,,2013-01-02 01:11:00,
2013-01-01 17:22:00,39.0,1.0,29.94,East,90,0.0,3.0,20,0.00,,,0.00,,2013-01-02 01:22:00,
2013-01-01 17:32:00,37.0,0.0,29.94,ESE,112,3.0,5.0,20,0.00,,,0.00,,2013-01-02 01:32:00,
2013-01-01 17:52:00,37.0,0.0,29.94,ESE,112,3.0,5.0,20,0.00,,,0.00,,2013-01-02 01:52:00,
2013-01-01 18:02:00,37.0,3.0,29.97,ESE,112,3.0,5.0,23,0.00,,,0.00,,2013-01-02 02:02:00,
2013-01-01 18:11:00,37.0,3.0,29.97,ESE,112,3.0,5.0,23,0.00,,,0.00,,2013-01-02 02:11:00,
2013-01-01 18:22:00,36.0,2.0,30.00,ESE,112,2.0,5.0,23,0.00,,,0.00,,2013-01-02 02:22:00,
2013-01-01 18:32:00,36.0,2.0,29.97,SE,135,3.0,3.0,23,0.00,,,0.00,,2013-01-02 02:32:00,
2013-01-01 18:42:00,36.0,2.0,29.97,SE,135,3.0,3.0,23,0.00,,,0.00,,2013-01-02 02:42:00,
2013-01-01 18:52:00,36.0,2.0,29.97,SE,135,0.0,5.0,23,0.00,,,0.00,,2013-01-02 02:52:00,
2013-01-01 19:01:00,35.0,1.0,29.97,SE,135,0.0,3.0,23,0.00,,,0.00,,2013-01-02 03:01:00,
2013-01-01 19:11:00,35.0,1.0,29.97,SE,135,0.0,3.0,23,0.00,,,0.00,,2013-01-02 03:11:00,
2013-01-01 19:22:00,34.0,0.0,29.97,SE,135,0.0,2.0,23,0.00,,,0.00,,2013-01-02 03:22:00,
2013-01-01 19:32:00,32.0,-1.0,29.97,ESE,112,5.0,5.0,24,0.00,,,0.00,,2013-01-02 03:32:00,
2013-01-01 19:42:00,32.0,-1.0,29.97,ESE,112,5.0,5.0,24,0.00,,,0.00,,2013-01-02 03:42:00,
2013-01-01 19:52:00,31.0,-2.0,30.00,ESE,112,0.0,3.0,24,0.00,,,0.00,,2013-01-02 03:52:00,
2013-01-01 20:02:00,32.0,-1.0,30.00,ESE,112,0.0,2.0,24,0.00,,,0.00,,2013-01-02 04:02:00,
2013-01-01 20:22:00,32.0,-1.0,30.00,SE,135,2.0,3.0,24,0.00,,,0.00,,2013-01-02 04:22:00,
2013-01-01 20:32:00,33.0,0.0,30.00,SE,135,0.0,5.0,24,0.00,,,0.00,,2013-01-02 04:32:00,
2013-01-01 20:42:00,33.0,0.0,30.00,SE,135,0.0,5.0,24,0.00,,,0.00,,2013-01-02 04:42:00,
2013-01-01 20:52:00,33.0,0.0,30.00,SE,135,3.0,5.0,24,0.00,,,0.00,,2013-01-02 04:52:00,
2013-01-01 21:02:00,34.0,0.0,30.00,SE,135,2.0,5.0,23,0.00,,,0.00,,2013-01-02 05:02:00,
2013-01-01 21:12:00,34.0,0.0,30.00,SE,135,2.0,5.0,23,0.00,,,0.00,,2013-01-02 05:12:00,
2013-01-01 21:22:00,35.0,1.0,30.00,SE,135,5.0,5.0,23,0.00,,,0.00,,2013-01-02 05:22:00,
2013-01-01 21:32:00,35.0,1.0,30.00,SE,135,3.0,6.0,23,0.00,,,0.00,,2013-01-02 05:32:00,
2013-01-01 21:42:00,35.0,1.0,30.00,SE,135,3.0,6.0,23,0.00,,,0.00,,2013-01-02 05:42:00,
2013-01-01 21:52:00,36.0,2.0,30.00,SE,135,3.0,6.0,23,0.00,,,0.00,,2013-01-02 05:52:00,
2013-01-01 22:02:00,36.0,2.0,30.00,SE,135,2.0,5.0,23,0.00,,,0.00,,2013-01-02 06:02:00,
2013-01-01 22:11:00,36.0,2.0,30.00,SE,135,2.0,5.0,23,0.00,,,0.00,,2013-01-02 06:11:00,
2013-01-01 22:22:00,35.0,1.0,30.00,SE,135,3.0,5.0,23,0.00,,,0.00,,2013-01-02 06:22:00,
2013-01-01 22:32:00,35.0,1.0,30.00,SE,135,1.0,5.0,23,0.00,,,0.00,,2013-01-02 06:32:00,
2013-01-01 22:42:00,35.0,1.0,30.00,SE,135,1.0,5.0,23,0.00,,,0.00,,2013-01-02 06:42:00,
2013-01-01 22:52:00,35.0,1.0,30.00,SE,135,0.0,3.0,23,0.00,,,0.00,,2013-01-02 06:52:00,
2013-01-01 23:01:00,34.0,0.0,30.00,SE,135,2.0,6.0,23,0.00,,,0.00,,2013-01-02 07:01:00,
2013-01-01 23:12:00,34.0,0.0,30.00,SE,135,2.0,6.0,23,0.00,,,0.00,,2013-01-02 07:12:00,
2013-01-01 23:22:00,34.0,1.0,30.00,SE,135,2.0,5.0,24,0.00,,,0.00,,2013-01-02 07:22:00,
2013-01-01 23:32:00,34.0,1.0,30.00,SE,135,2.0,3.0,24,0.00,,,0.00,,2013-01-02 07:32:00,
2013-01-01 23:42:00,34.0,1.0,30.00,SE,135,2.0,3.0,24,0.00,,,0.00,,2013-01-02 07:42:00,
2013-01-01 23:52:00,33.0,0.0,30.00,SE,135,0.0,3.0,24,0.00,,,0.00,,2013-01-02 07:52:00,